Home   Weather   Fetsund   Past weeks

Flag for Norway Past Weather in Fetsund, Norway — Yesterday and Last 2 Weeks

Now
28 °F

Chilly.


Feels Like: 28 °F
Forecast: 21 / 26 °F
Wind: 1 mph from Southeast

Location: Oslo-Blindern

Current Time: Dec 3, 2016 at 1:35:59 am

Latest Report: Dec 3, 2016 at 1:00 am


Visibility: 31 mi

Pressure: 30.17 "Hg

Humidity: 73%

Dew Point: 21 °F

Location of FetsundLocation

Past Weather in Fetsund — Graph

°F

Fetsund Temperature Yesterday

Maximum temperature yesterday: 41 °F (at 1:00 pm)
Minimum temperature yesterday: 28 °F (at 9:00 pm)
Average temperature yesterday: 35 °F

High & Low Weather Summary for the Past Weeks

 TemperatureHumidityPressure
High48 °F (Nov 26, 12:00 pm)100% (Nov 22, 3:00 pm)30.46 "Hg (Nov 22, 3:00 pm)
Low25 °F (Nov 29, 6:00 am)38% (Nov 26, 2:00 pm)28.94 "Hg (Nov 18, 7:00 am)
Average36 °F79%29.81 "Hg
* Reported Nov 18 1:00 am — Dec 3 12:00 am, Fetsund, Weather by CustomWeather, © 2016

Note: Actual official high and low records may vary slightly from our data, if they occured in-between our weather recording intervals... More about our weather records

Advertising

Fetsund Weather History for the Previous 24 Hours

Scroll right to see more
 ConditionsComfort  
Time TempWeatherWind HumidityBarometerVisibility
12:00 am
Sat, Dec 3
30 °FChilly.1 mph67%30.16 "Hg31 mi
11:00 pm
Fri, Dec 2
28 °FChilly.1 mph72%30.17 "Hg31 mi
10:00 pm28 °FPassing clouds.1 mph72%30.17 "Hg47 mi
9:00 pm28 °FChilly.1 mph76%30.17 "Hg25 mi
8:00 pm29 °FChilly.1 mph72%30.17 "Hg31 mi
7:00 pm29 °FChilly.1 mph71%30.16 "Hg28 mi
6:00 pm31 °FChilly.1 mph66%30.15 "Hg19 mi
5:00 pm35 °FChilly.1 mph55%30.14 "HgN/A
4:00 pm36 °FChilly.1 mph52%30.12 "HgN/A
3:00 pm39 °FChilly.5 mph45%30.11 "HgN/A
2:00 pm41 °FQuite cool.7 mph42%30.09 "HgN/A
1:00 pm41 °FPassing clouds.5 mph41%30.08 "Hg43 mi
12:00 pm41 °FQuite cool.6 mph41%30.07 "HgN/A
11:00 am40 °FChilly.2 mph42%30.06 "HgN/A
10:00 am33 °FScattered clouds.1 mph55%30.04 "Hg43 mi
9:00 am32 °FChilly.1 mph57%30.01 "HgN/A
8:00 am35 °FChilly.2 mph50%29.98 "HgN/A
7:00 am37 °FChilly.2 mph46%29.95 "HgN/A
6:00 am37 °FChilly.2 mph44%29.93 "Hg31 mi
5:00 am37 °FChilly.1 mph44%29.90 "Hg31 mi
4:00 am35 °FChilly.1 mph47%29.88 "Hg31 mi
3:00 am38 °FChilly.2 mph44%29.85 "Hg31 mi
1:00 am34 °FChilly.2 mph50%29.83 "Hg31 mi
Weather by CustomWeather, © 2016

See weather overviewHow to use our weather pages